Wind_Speed
14 16 20 26 34 37 34 37 42 41 40 39 38 39 38 37 37 35 35 34 33 32 31 31 30 29 27 29 29 28 26 25 25 24 24 24 24 23 23 22 21 18 15 14 14 12 10 9 8 6 6 5 3 1 2 3 4 5 5 5 4 3 2
11 14 18 25 32 36 34 35 41 45 44 41 39 38 38 38 37 36 35 34 33 33 33 32 32 31 30 30 31 30 28 27 26 26 25 25 25 24 25 24 24 22 19 17 17 16 12 10 9 7 8 7 5 4 5 4 4 4 4 5 4 4 3
7 11 14 18 25 31 31 32 38 44 45 42 39 38 39 38 36 35 34 33 33 33 33 34 34 34 32 31 32 31 30 28 27 27 27 27 27 26 26 26 26 24 22 19 18 17 15 12 11 10 10 10 8 8 7 6 6 4 3 4 4 4 4
7 8 10 12 17 23 26 28 34 40 42 41 41 40 40 39 36 35 33 32 32 32 33 34 34 35 34 33 33 32 31 30 29 29 29 29 29 28 28 28 28 27 25 22 20 18 17 15 14 13 13 14 12 11 10 10 8 5 4 3 4 5 5
11 9 9 10 14 17 21 24 30 40 45 43 43 42 40 38 36 34 34 33 33 32 31 32 34 35 36 35 34 33 32 31 30 30 30 30 30 30 30 29 29 29 28 26 23 21 20 18 17 17 17 18 16 14 14 14 11 8 6 4 4 5 5
15 13 11 10 12 13 17 20 24 37 49 46 44 44 42 41 40 39 40 39 36 34 32 32 33 34 35 35 34 33 32 32 31 30 30 30 31 31 31 31 31 30 30 29 27 25 23 21 20 20 19 20 18 17 17 16 15 12 8 6 6 6 6
17 17 15 12 12 10 12 15 17 26 44 47 43 43 43 43 44 44 45 43 41 39 36 33 33 33 33 33 32 32 31 31 30 29 28 28 30 31 32 32 32 31 30 29 29 28 26 24 22 20 20 20 20 20 19 18 17 14 10 9 9 7 6
20 19 19 17 15 13 11 13 13 18 30 36 36 37 37 38 38 38 40 41 41 41 40 38 36 35 34 32 31 31 30 30 29 28 26 25 26 29 31 32 31 31 30 30 30 30 28 26 23 22 21 21 21 21 21 20 18 15 13 11 10 9 8
22 22 21 20 19 18 15 14 15 17 22 27 31 33 34 35 33 32 34 36 38 39 41 42 39 38 37 34 32 31 30 30 29 28 26 25 24 27 30 31 31 30 30 30 30 31 29 27 25 24 22 22 22 22 22 21 19 17 15 14 12 10 10
24 24 24 23 22 22 20 18 17 17 19 22 27 30 32 33 33 33 34 35 36 37 40 41 40 38 38 37 35 33 32 31 30 28 26 26 25 26 28 31 31 30 29 30 30 30 30 28 26 25 24 24 23 23 23 23 20 18 17 16 14 12 12
23 24 25 25 25 24 24 23 21 20 18 19 23 27 29 30 32 33 34 35 37 38 39 41 41 40 39 39 37 35 34 32 31 28 27 27 27 27 28 29 30 30 30 30 30 30 29 29 28 27 26 26 25 24 24 24 21 19 18 17 15 14 14
22 23 25 26 27 27 26 25 25 23 21 19 20 24 27 29 29 30 32 34 35 36 37 40 44 44 41 39 38 36 35 34 32 30 28 28 29 29 29 29 30 30 29 29 29 29 29 29 28 28 28 28 26 25 24 25 23 20 19 19 17 17 17
22 23 24 26 27 28 29 28 27 26 25 23 22 22 25 28 30 30 32 33 33 34 34 35 40 45 44 41 39 38 37 35 33 31 30 30 30 31 30 30 30 29 28 29 29 29 29 29 28 27 28 29 28 26 25 26 25 21 20 20 19 18 18
22 23 23 25 27 28 30 31 30 29 28 27 26 25 26 28 31 33 33 33 34 35 34 33 34 38 41 40 40 40 40 38 36 33 32 31 32 32 32 31 30 29 29 29 30 29 29 29 29 28 28 28 28 27 26 27 26 23 20 20 20 20 20
20 22 22 24 26 28 30 32 33 33 32 30 30 30 29 30 32 33 34 34 34 34 33 34 33 33 35 36 38 40 41 41 39 36 35 34 33 33 34 33 31 29 29 30 30 30 30 30 30 29 28 28 27 27 27 28 28 26 22 20 21 22 22
18 20 21 22 24 27 29 32 34 35 36 35 33 33 33 33 33 33 34 34 35 34 32 32 33 33 33 34 36 38 39 41 40 39 37 36 35 35 36 35 32 30 29 29 30 30 30 30 30 30 30 29 27 26 27 28 30 29 27 24 23 22 23
16 18 19 20 21 24 26 29 32 35 37 38 37 36 35 35 34 34 34 35 36 35 33 31 31 33 32 32 33 34 36 39 40 40 39 37 36 37 37 36 34 32 31 31 30 29 29 29 29 29 29 29 29 27 27 28 30 31 30 29 27 25 24
15 16 17 18 19 21 22 25 28 31 35 38 40 40 39 37 36 35 35 36 37 38 36 34 32 32 32 31 31 32 33 35 37 38 38 37 36 37 37 36 35 34 34 33 31 29 27 25 25 26 26 27 28 28 28 30 31 32 32 31 30 29 28
15 15 16 16 17 19 20 22 23 26 30 34 38 41 42 41 40 38 36 36 37 39 40 39 38 35 33 32 32 32 33 33 35 36 37 36 36 37 37 36 35 36 36 34 31 28 25 23 23 24 24 25 26 27 28 29 32 34 35 34 32 32 31
13 13 14 15 16 17 19 20 21 22 24 27 31 36 40 42 43 42 40 38 38 39 40 42 42 41 39 36 35 35 34 34 34 36 37 37 37 38 38 37 37 37 37 34 31 29 27 24 24 24 24 24 26 28 28 29 31 34 36 36 36 35 35
10 11 12 13 15 16 17 18 20 20 21 22 24 28 33 38 42 43 43 42 40 40 40 41 42 43 43 42 40 39 38 38 37 37 37 37 37 38 39 39 39 38 38 36 33 32 30 29 28 28 27 27 27 28 29 30 31 34 36 38 39 39 39
8 9 10 12 13 15 16 17 18 19 20 20 21 23 26 30 35 40 43 44 44 43 42 42 42 43 44 45 45 45 44 43 42 40 40 39 39 38 39 40 39 39 38 37 36 35 35 34 34 33 31 31 31 31 32 33 33 35 36 38 40 41 42
7 8 9 11 12 14 15 16 17 18 19 19 20 21 22 24 28 32 37 41 45 46 46 45 44 44 45 47 49 49 49 48 47 45 44 43 42 41 41 41 41 40 40 40 39 39 39 39 37 35 33 33 33 34 36 37 37 38 38 39 40 41 43
7 8 9 10 11 13 14 15 16 16 17 18 19 19 20 22 24 26 30 34 39 43 46 48 48 48 47 48 50 51 52 52 51 50 49 47 46 45 45 45 45 45 45 45 43 42 41 40 38 36 36 35 35 36 38 40 41 41 40 40 40 41 42
8 8 9 10 11 12 14 15 15 15 16 17 17 18 19 20 22 23 26 29 32 36 41 45 48 50 51 51 51 52 53 53 53 53 53 52 51 49 49 49 49 49 49 48 47 45 43 41 39 38 38 38 38 38 39 41 43 43 43 43 42 42 42
8 8 9 9 10 11 13 14 15 15 15 16 16 17 18 19 21 22 24 26 28 31 34 38 42 47 50 52 54 54 54 54 54 55 55 55 55 54 53 53 53 53 52 50 49 47 45 43 42 40 40 40 40 40 40 41 42 44 45 45 46 46 44
8 8 8 9 9 10 11 12 13 13 13 14 14 15 15 17 18 20 22 24 26 28 31 34 37 41 44 48 52 55 56 56 56 56 56 56 57 57 57 57 57 56 55 54 52 49 47 46 45 44 44 44 44 43 43 43 43 43 45 46 48 48 46
7 7 7 8 8 8 9 9 10 10 10 11 12 12 13 14 15 16 18 20 21 24 28 31 34 36 39 41 45 49 52 54 56 56 56 57 57 57 58 59 60 60 59 58 56 53 51 49 48 49 48 48 48 47 48 47 46 46 46 46 47 48 47
7 7 7 8 8 8 8 8 8 8 8 9 10 10 11 12 13 14 14 15 17 20 23 27 29 32 34 36 39 42 45 48 50 52 54 55 56 56 57 58 60 61 62 61 60 58 56 54 53 53 54 53 52 52 51 50 49 48 47 47 47 48 47
8 8 8 8 8 7 7 7 7 7 7 7 8 8 8 9 11 12 13 13 14 16 19 21 23 25 28 30 33 36 39 42 45 47 49 51 53 55 56 56 58 59 60 61 61 60 60 59 58 58 58 58 57 57 55 53 51 50 49 48 48 49 48
9 9 8 8 8 7 7 7 7 7 7 8 8 7 7 7 7 9 10 11 12 14 16 17 18 20 23 25 28 30 33 37 40 43 45 47 49 52 53 55 56 57 58 59 58 59 60 61 62 62 63 63 62 61 59 56 53 52 50 49 49 49 49
10 10 9 9 9 8 8 8 8 8 8 8 8 8 8 7 7 7 7 8 10 12 13 15 16 18 20 21 23 26 28 31 34 37 40 43 45 47 49 51 53 55 57 57 57 57 58 60 62 64 64 64 64 64 61 58 55 54 52 51 50 49 48
11 11 11 11 11 11 10 10 10 9 9 9 9 9 9 9 8 8 7 7 8 9 11 12 14 16 17 19 20 22 24 27 30 32 34 36 38 41 43 45 47 49 52 54 55 56 57 58 59 61 62 63 64 63 61 58 57 56 55 54 52 50 49
11 12 12 12 12 12 12 12 11 11 10 11 11 11 11 11 10 10 9 8 8 9 10 11 12 13 15 16 18 19 21 24 26 29 30 31 33 34 36 37 40 42 45 48 50 53 55 56 57 58 59 60 61 61 60 59 59 58 59 58 56 54 52
10 11 11 12 12 13 13 13 12 12 11 12 12 13 13 13 13 12 11 11 10 10 10 11 12 13 14 15 16 17 18 20 22 25 27 28 29 30 31 32 33 34 37 41 44 48 50 53 55 56 56 57 57 58 58 59 60 60 61 60 59 57 54
10 10 11 12 12 13 13 14 14 14 13 13 13 13 13 14 14 14 14 13 13 12 12 12 12 12 13 14 15 16 17 18 20 22 23 23 24 27 28 29 29 29 30 34 37 41 45 48 51 53 54 54 54 56 57 58 59 60 61 61 60 58 55
10 10 11 12 12 13 14 14 15 15 15 15 15 14 14 14 14 14 15 15 15 14 14 14 14 14 14 14 15 16 17 17 19 21 22 21 22 24 26 27 27 28 28 30 32 34 39 43 46 48 50 51 52 54 55 56 57 58 59 60 60 58 56
Wind_Direction
241 233 232 230 215 203 201 196 190 191 196 201 205 207 209 210 210 210 210 210 210 210 212 215 217 217 215 213 211 208 207 209 214 222 230 235 238 242 246 250 250 245 238 236 236 233 226 222 218 218 226 220 207 264 316 352 359 360 355 348 344 337 345
240 236 232 232 223 212 206 198 194 195 197 200 205 209 211 213 212 211 210 209 209 209 210 212 214 215 213 211 210 209 207 207 210 217 226 233 238 242 246 250 252 251 245 238 237 238 236 232 229 234 238 227 215 244 276 305 327 344 348 338 330 322 321
239 237 235 234 223 214 211 207 202 199 198 200 204 209 212 214 214 212 210 210 211 211 211 211 212 214 213 211 210 210 209 209 211 215 222 231 235 240 245 250 253 254 251 245 240 239 241 240 240 244 247 240 229 237 258 276 288 304 325 325 318 314 316
237 228 227 228 220 214 213 214 208 201 201 207 210 211 212 213 214 213 212 213 213 213 212 212 212 213 214 213 212 212 212 213 214 216 220 227 233 237 242 248 253 256 257 255 249 244 242 241 243 247 252 250 243 242 253 264 270 271 277 290 295 298 305
230 223 219 221 223 225 226 229 222 207 204 212 215 214 214 214 214 213 213 215 215 213 212 213 213 213 214 214 214 214 214 215 217 218 221 226 232 238 242 247 252 256 259 261 259 253 249 247 248 250 252 253 252 251 256 263 266 262 256 255 263 273 284
230 224 222 219 222 229 232 243 243 216 207 210 213 214 215 216 218 218 216 218 218 214 212 213 214 214 213 212 212 214 216 217 217 218 220 224 230 236 240 244 248 253 258 262 263 261 257 255 253 252 252 253 255 256 257 261 262 258 253 249 249 251 262
235 228 224 223 224 230 230 243 253 221 207 209 213 217 218 218 220 221 221 221 219 216 215 215 214 212 210 209 209 211 214 214 214 215 217 221 226 232 237 241 244 248 253 257 260 262 261 260 258 256 254 255 257 258 258 259 258 254 250 248 247 245 251
235 233 228 224 223 228 230 235 245 229 215 217 224 226 225 223 222 221 221 221 219 218 218 218 217 215 213 212 211 212 213 214 214 214 215 219 223 228 233 237 241 245 248 251 255 259 260 261 262 262 259 259 260 260 259 257 254 250 247 245 243 248 254
233 234 232 228 225 225 227 230 234 235 231 232 234 232 229 229 227 223 221 220 220 220 219 218 219 219 219 219 218 218 218 218 218 216 216 219 221 224 227 232 237 241 245 248 251 255 258 260 262 263 263 264 264 263 261 256 251 247 245 240 239 246 253
233 234 234 232 229 227 226 227 229 233 236 237 235 231 230 230 230 229 227 225 222 223 223 222 221 220 220 222 223 225 225 225 225 222 220 222 223 223 224 226 231 236 240 244 248 253 257 259 260 262 264 265 266 266 263 258 250 243 241 237 237 243 247
235 234 234 234 233 231 229 228 227 229 233 237 234 230 228 229 230 231 231 230 228 228 229 228 225 220 219 221 223 226 227 228 229 228 225 226 226 226 224 224 226 231 235 239 244 249 253 256 257 259 262 264 265 265 265 262 252 242 237 234 235 240 244
235 234 233 234 235 234 233 232 230 229 228 233 235 232 229 229 232 234 234 233 232 233 234 233 228 222 220 220 222 225 227 228 230 230 229 229 228 228 228 227 228 229 232 236 240 244 248 252 254 257 259 262 264 264 265 264 256 243 237 234 232 236 240
238 235 233 233 234 235 235 235 234 233 230 229 232 233 232 232 234 236 237 235 234 235 236 234 229 224 222 223 224 226 228 231 232 232 232 231 230 231 232 233 233 233 233 235 237 239 242 246 249 253 257 260 262 263 263 263 258 249 242 237 233 233 238
243 239 235 233 233 234 234 235 235 235 233 230 229 230 231 232 233 234 235 233 232 233 234 233 230 228 227 228 229 229 231 233 235 235 233 232 232 233 235 237 238 238 237 236 235 236 238 242 246 250 254 258 261 262 263 264 262 256 249 242 235 233 237
247 244 240 237 235 234 233 234 234 234 234 233 231 229 229 231 232 233 233 231 230 229 228 230 231 231 230 230 231 231 232 234 235 236 235 234 235 236 237 238 239 240 240 239 237 237 238 242 246 249 251 254 257 260 263 265 266 262 256 249 243 239 238
250 247 244 240 237 235 235 234 234 233 233 233 233 231 230 230 231 232 233 233 231 228 224 225 227 228 230 231 232 232 233 233 234 235 235 235 236 238 238 238 237 238 239 239 238 238 239 242 246 249 250 251 252 253 257 262 266 265 263 261 257 250 244
253 250 248 245 241 237 236 235 235 234 233 233 233 233 233 232 231 232 233 235 235 232 226 224 225 226 228 231 233 235 236 235 234 234 234 235 237 239 239 238 237 236 237 237 236 236 238 241 245 248 250 251 250 250 251 255 260 263 264 264 263 260 256
257 254 251 249 246 241 238 237 236 235 234 234 234 233 234 234 233 232 233 235 237 235 231 229 228 227 227 229 232 235 237 236 235 234 234 235 237 240 240 238 236 235 235 235 234 234 236 238 242 246 248 250 251 251 251 253 256 259 260 261 262 264 263
262 259 255 252 249 245 242 240 238 237 236 235 235 235 235 235 234 233 233 234 236 236 235 233 233 232 231 231 232 234 236 237 236 235 235 237 238 239 240 240 238 236 235 235 233 232 233 235 239 244 246 249 252 252 252 254 257 260 261 261 261 263 264
267 262 258 255 252 249 247 244 243 241 239 237 236 236 236 236 236 235 234 233 235 236 236 235 235 235 236 236 237 237 239 240 240 239 238 238 239 240 241 241 240 238 237 236 234 233 234 239 244 247 248 250 252 254 254 254 256 260 262 263 262 262 264
270 263 259 257 255 253 251 249 248 246 245 242 238 237 237 237 237 237 236 235 235 236 237 237 236 236 237 238 239 241 243 243 244 244 243 242 240 240 241 241 240 239 239 239 237 236 239 246 252 255 254 253 253 256 258 258 258 259 261 262 263 262 263
273 269 267 265 263 261 258 256 255 253 251 248 244 240 238 238 237 237 238 237 236 236 236 237 238 237 237 237 238 241 243 245 246 246 246 245 243 241 240 241 239 239 241 242 241 241 245 251 256 259 258 256 255 257 259 260 260 261 261 262 262 262 261
281 277 275 272 271 269 267 264 262 259 258 255 252 248 244 241 239 237 238 238 238 238 237 237 238 238 238 237 238 239 241 243 245 246 247 247 246 243 241 241 240 240 243 246 246 246 249 253 257 259 259 258 258 259 260 260 261 261 262 263 263 263 262
292 289 288 286 282 279 276 272 266 262 259 258 257 255 252 249 244 240 238 238 239 239 239 239 239 239 239 239 239 239 241 242 243 245 246 247 247 246 244 243 244 245 247 249 249 249 250 254 258 260 260 260 261 262 262 261 260 260 262 263 264 264 263
296 297 296 295 293 290 285 278 272 266 261 257 256 255 255 254 250 246 242 239 239 239 240 240 240 240 240 241 241 241 241 242 243 244 245 246 247 247 247 246 246 248 250 250 251 251 252 255 259 260 260 261 262 263 263 261 260 259 260 262 263 264 264
295 298 298 300 304 302 294 285 277 271 266 262 260 258 258 257 255 251 246 243 241 241 241 241 241 241 241 241 242 243 243 243 243 244 244 245 246 247 247 247 247 248 250 251 252 253 254 257 260 261 260 260 261 263 264 262 260 259 260 261 263 264 265
293 296 297 301 308 310 304 293 283 276 271 269 267 265 263 261 258 255 251 247 245 243 243 244 244 243 243 242 242 243 244 244 245 244 244 245 246 246 247 248 248 249 250 251 253 254 256 259 262 263 262 261 261 263 264 263 261 261 261 262 263 264 264
289 294 296 300 305 313 315 307 296 287 280 275 271 269 266 264 261 258 255 252 250 247 246 246 247 247 247 247 247 247 247 247 248 247 247 247 247 247 247 248 249 250 251 252 253 255 257 259 261 263 263 262 262 262 263 263 263 263 263 264 263 263 263
278 283 288 296 305 314 320 318 311 303 295 286 277 271 267 266 264 261 259 256 254 252 251 250 250 250 251 251 251 252 252 252 253 253 252 252 251 251 250 250 250 251 252 253 254 255 257 259 260 262 262 262 262 261 260 261 261 262 262 262 262 262 261
270 274 279 287 301 314 318 317 315 313 310 303 292 282 274 270 267 264 262 260 257 256 256 255 255 254 254 254 254 254 254 254 255 255 255 255 255 254 253 253 252 252 253 254 254 256 257 258 260 260 261 261 260 260 259 258 258 259 260 261 261 261 260
268 274 277 282 292 306 316 316 315 315 313 309 303 298 292 286 280 273 268 264 260 259 259 259 258 257 256 256 256 257 256 256 256 256 257 257 257 256 256 255 255 254 254 254 254 255 256 257 258 259 259 260 259 259 258 256 255 256 258 259 259 259 258
271 279 283 283 284 293 306 312 313 314 313 312 311 310 306 303 301 296 288 278 270 266 264 265 265 263 262 261 261 262 262 261 260 260 259 259 259 259 259 258 257 257 257 256 256 254 254 255 257 258 258 259 258 258 257 254 253 253 254 255 255 256 256
277 282 285 285 285 289 295 299 302 305 308 313 317 317 314 310 307 305 302 296 287 280 274 271 269 269 269 269 269 268 268 268 267 265 264 263 262 262 262 262 261 260 260 259 258 257 255 254 255 257 258 259 259 259 257 253 252 252 252 251 251 252 254
280 281 283 286 288 289 290 293 295 295 298 303 310 313 314 314 312 309 306 302 297 292 287 282 279 276 276 275 275 275 274 274 273 271 270 269 267 266 265 265 265 264 263 262 260 259 257 255 254 254 255 257 258 258 256 253 252 251 251 251 250 250 251
288 286 286 288 289 290 291 293 295 294 293 295 300 305 308 310 311 312 311 309 305 299 294 289 287 285 285 285 284 284 284 282 280 278 275 273 271 270 268 267 266 266 265 264 262 260 259 257 255 253 252 253 254 254 254 253 252 250 249 250 250 249 249
297 293 291 290 290 291 293 294 296 296 295 296 297 300 303 305 306 308 309 309 308 306 303 298 293 291 289 288 288 289 290 290 290 288 286 283 280 275 271 268 267 266 266 265 263 261 259 257 255 253 251 250 250 250 251 251 251 250 250 250 251 250 248
311 305 301 296 293 292 291 292 293 295 296 297 297 298 299 299 300 301 301 302 302 302 303 302 301 300 299 296 294 292 291 292 293 293 294 294 292 286 280 274 269 266 265 265 264 262 259 256 254 252 250 249 248 247 247 249 249 249 250 250 251 251 249
Height
3095 3097 3097 3098 3100 3102 3103 3105 3108 3113 3116 3120 3123 3127 3129 3131 3134 3136 3139 3141 3143 3146 3149 3152 3155 3157 3158 3160 3162 3163 3164 3165 3167 3168 3170 3171 3173 3174 3176 3177 3178 3180 3182 3183 3184 3185 3185 3186 3186 3187 3187 3188 3188 3188 3188 3188 3187 3187 3187 3186 3186 3186 3186
3095 3096 3096 3097 3099 3101 3102 3104 3108 3111 3114 3117 3121 3124 3127 3129 3132 3134 3136 3138 3141 3143 3146 3149 3152 3154 3156 3158 3159 3161 3162 3163 3165 3167 3168 3169 3171 3173 3174 3175 3176 3178 3179 3181 3182 3183 3184 3185 3186 3186 3187 3187 3188 3188 3188 3187 3187 3187 3186 3186 3186 3185 3185
3095 3095 3095 3096 3097 3100 3103 3105 3107 3109 3113 3116 3118 3122 3124 3127 3130 3133 3135 3137 3139 3141 3143 3146 3149 3151 3154 3156 3157 3159 3160 3162 3163 3164 3166 3167 3169 3170 3172 3173 3174 3176 3177 3179 3181 3182 3183 3184 3185 3186 3186 3186 3187 3187 3187 3187 3187 3186 3186 3186 3186 3185 3185
3095 3094 3095 3096 3097 3098 3101 3103 3105 3108 3111 3114 3117 3120 3123 3125 3128 3131 3133 3136 3137 3139 3141 3144 3147 3149 3151 3153 3154 3156 3157 3159 3161 3162 3163 3165 3166 3168 3169 3170 3172 3174 3175 3177 3179 3181 3181 3182 3183 3184 3185 3185 3185 3186 3186 3186 3186 3186 3186 3186 3186 3185 3185
3094 3094 3095 3096 3097 3098 3099 3101 3103 3106 3109 3112 3114 3117 3120 3123 3125 3128 3130 3133 3135 3137 3139 3142 3144 3146 3148 3150 3151 3153 3154 3156 3158 3159 3161 3162 3164 3165 3167 3168 3170 3171 3173 3174 3177 3179 3180 3181 3182 3182 3183 3184 3184 3185 3185 3185 3185 3186 3186 3185 3185 3185 3184
3093 3093 3094 3095 3096 3097 3098 3099 3100 3102 3105 3109 3112 3115 3118 3120 3122 3124 3127 3130 3133 3135 3137 3139 3142 3143 3145 3147 3149 3150 3152 3153 3155 3156 3157 3159 3161 3163 3164 3166 3167 3168 3170 3172 3173 3175 3177 3179 3179 3180 3181 3182 3182 3183 3183 3184 3184 3185 3185 3185 3184 3184 3184
3091 3092 3092 3093 3094 3096 3097 3098 3098 3099 3103 3107 3110 3113 3115 3117 3119 3122 3124 3127 3130 3131 3133 3136 3139 3141 3143 3144 3146 3148 3149 3151 3152 3153 3154 3156 3158 3160 3161 3163 3164 3165 3167 3169 3170 3171 3173 3175 3177 3178 3179 3179 3180 3181 3181 3182 3183 3183 3184 3184 3184 3183 3183
3088 3090 3091 3092 3093 3094 3096 3097 3097 3099 3103 3106 3108 3110 3112 3115 3117 3119 3121 3124 3126 3128 3130 3133 3136 3138 3140 3142 3143 3145 3147 3148 3149 3150 3151 3152 3154 3156 3158 3160 3161 3163 3164 3166 3167 3168 3170 3172 3173 3175 3177 3177 3178 3178 3179 3180 3181 3182 3183 3183 3183 3183 3182
3086 3088 3089 3090 3091 3092 3094 3096 3097 3099 3101 3104 3106 3108 3110 3112 3115 3117 3119 3121 3124 3126 3127 3130 3133 3135 3137 3139 3141 3142 3144 3145 3146 3147 3148 3149 3151 3153 3155 3157 3158 3160 3161 3163 3164 3165 3167 3169 3170 3172 3173 3174 3175 3176 3177 3177 3179 3180 3181 3181 3181 3182 3181
3084 3085 3087 3088 3089 3091 3092 3094 3096 3098 3099 3101 3103 3104 3107 3110 3113 3115 3117 3119 3121 3123 3125 3127 3130 3132 3134 3136 3138 3140 3142 3143 3144 3145 3146 3147 3149 3150 3152 3154 3155 3157 3159 3160 3161 3162 3164 3166 3167 3168 3170 3171 3172 3173 3174 3175 3176 3178 3178 3179 3180 3180 3180
3081 3083 3084 3086 3087 3089 3090 3091 3093 3095 3097 3099 3100 3102 3104 3107 3110 3112 3114 3116 3118 3121 3123 3125 3127 3129 3130 3133 3135 3137 3139 3140 3141 3142 3143 3145 3147 3148 3149 3151 3153 3155 3156 3157 3159 3160 3162 3163 3164 3166 3167 3168 3170 3170 3171 3172 3173 3175 3176 3176 3177 3178 3178
3078 3080 3082 3083 3085 3086 3088 3089 3091 3092 3094 3096 3098 3100 3102 3105 3107 3109 3111 3113 3115 3117 3119 3121 3123 3125 3127 3129 3131 3134 3136 3137 3138 3140 3141 3142 3144 3146 3147 3149 3150 3152 3154 3155 3156 3158 3159 3160 3162 3163 3164 3166 3167 3168 3169 3169 3170 3172 3174 3174 3175 3175 3175
3075 3077 3079 3081 3082 3084 3086 3087 3088 3090 3092 3094 3096 3097 3099 3102 3104 3106 3108 3110 3112 3114 3115 3117 3119 3121 3124 3126 3128 3130 3132 3133 3135 3137 3138 3140 3142 3143 3145 3146 3148 3150 3151 3152 3153 3155 3156 3158 3159 3160 3161 3162 3164 3165 3166 3166 3167 3169 3172 3172 3172 3173 3173
3073 3074 3076 3078 3079 3081 3083 3084 3086 3087 3089 3091 3093 3095 3097 3099 3102 3104 3106 3107 3109 3111 3112 3114 3116 3118 3121 3123 3125 3127 3128 3130 3132 3134 3136 3137 3139 3141 3142 3144 3145 3147 3148 3149 3150 3152 3153 3154 3156 3157 3158 3159 3161 3162 3163 3164 3165 3166 3169 3170 3170 3170 3170
3070 3071 3073 3075 3076 3078 3079 3080 3082 3084 3086 3088 3090 3092 3094 3097 3099 3101 3103 3105 3107 3108 3110 3111 3113 3115 3118 3120 3122 3123 3125 3127 3129 3131 3133 3135 3137 3138 3140 3141 3143 3144 3145 3146 3147 3149 3150 3151 3152 3153 3155 3156 3157 3159 3160 3161 3162 3163 3165 3167 3168 3168 3168
3067 3069 3070 3072 3073 3074 3076 3077 3078 3080 3082 3084 3087 3089 3091 3093 3095 3098 3100 3102 3104 3105 3107 3109 3111 3112 3115 3117 3119 3120 3122 3123 3126 3128 3130 3132 3134 3135 3136 3138 3140 3141 3141 3143 3144 3146 3147 3148 3149 3150 3151 3152 3153 3155 3157 3158 3159 3160 3161 3163 3165 3166 3166
3065 3066 3067 3069 3071 3072 3073 3074 3075 3077 3079 3081 3083 3085 3087 3089 3092 3094 3096 3099 3101 3103 3104 3106 3108 3110 3112 3114 3115 3117 3119 3120 3123 3125 3127 3129 3131 3132 3133 3134 3137 3138 3138 3139 3141 3142 3143 3144 3145 3146 3148 3149 3150 3151 3153 3154 3155 3156 3157 3158 3161 3163 3163
3063 3064 3065 3067 3068 3069 3070 3071 3072 3073 3075 3077 3079 3081 3083 3085 3087 3090 3092 3095 3097 3099 3101 3103 3105 3107 3109 3110 3112 3114 3116 3117 3119 3121 3123 3125 3127 3128 3129 3131 3133 3134 3134 3135 3137 3138 3139 3140 3142 3143 3144 3146 3147 3148 3149 3150 3151 3152 3153 3154 3156 3158 3159
3061 3062 3063 3064 3065 3066 3067 3068 3069 3070 3072 3073 3075 3077 3079 3081 3083 3085 3088 3090 3093 3095 3098 3100 3102 3103 3105 3107 3109 3111 3112 3114 3116 3118 3120 3122 3123 3124 3126 3128 3130 3130 3130 3132 3134 3135 3136 3137 3138 3139 3141 3142 3144 3144 3145 3146 3147 3148 3149 3151 3152 3153 3155
3060 3060 3061 3062 3063 3064 3065 3065 3066 3068 3069 3070 3072 3073 3075 3077 3079 3081 3083 3086 3088 3091 3093 3095 3098 3100 3102 3103 3105 3107 3109 3111 3113 3115 3116 3118 3119 3121 3122 3124 3126 3126 3127 3129 3131 3132 3133 3134 3135 3136 3137 3139 3140 3140 3141 3142 3143 3144 3145 3147 3148 3149 3151
3058 3059 3059 3060 3061 3061 3062 3063 3064 3065 3066 3068 3069 3070 3071 3073 3075 3077 3079 3081 3084 3086 3088 3091 3093 3095 3098 3100 3101 3103 3105 3106 3108 3110 3112 3114 3115 3116 3118 3120 3121 3123 3124 3125 3127 3129 3130 3131 3132 3133 3134 3135 3136 3137 3138 3138 3139 3140 3141 3142 3143 3145 3146
3057 3058 3058 3058 3059 3059 3060 3061 3062 3062 3063 3065 3066 3067 3068 3069 3071 3072 3074 3077 3079 3081 3084 3086 3088 3090 3093 3095 3097 3099 3100 3102 3103 3105 3107 3109 3110 3112 3113 3115 3117 3118 3119 3121 3123 3124 3126 3127 3128 3129 3131 3132 3132 3133 3134 3135 3135 3136 3136 3137 3138 3139 3141
3056 3057 3057 3057 3057 3057 3058 3059 3059 3060 3061 3062 3063 3064 3065 3066 3068 3069 3070 3072 3074 3076 3078 3081 3083 3085 3087 3089 3091 3093 3095 3097 3098 3100 3102 3104 3106 3107 3109 3110 3112 3114 3115 3116 3118 3120 3122 3123 3124 3125 3126 3128 3129 3129 3130 3131 3131 3132 3132 3133 3134 3135 3135
3055 3055 3055 3056 3056 3056 3056 3056 3056 3057 3058 3059 3060 3061 3062 3063 3064 3065 3067 3068 3070 3071 3074 3076 3078 3080 3081 3083 3085 3087 3089 3091 3093 3094 3096 3098 3100 3102 3104 3106 3107 3109 3110 3111 3113 3115 3117 3118 3119 3120 3121 3123 3124 3125 3125 3126 3127 3128 3128 3128 3129 3130 3131
3055 3055 3055 3054 3054 3054 3054 3054 3054 3054 3055 3056 3057 3058 3059 3059 3060 3062 3063 3065 3066 3067 3069 3071 3072 3074 3076 3077 3079 3080 3082 3084 3086 3088 3090 3092 3094 3097 3098 3100 3102 3103 3105 3106 3108 3110 3112 3113 3115 3115 3116 3117 3119 3119 3120 3121 3122 3123 3123 3124 3125 3125 3127
3054 3054 3054 3053 3053 3052 3052 3051 3051 3051 3052 3053 3054 3054 3055 3056 3057 3058 3059 3061 3062 3063 3065 3066 3067 3069 3070 3071 3073 3074 3075 3077 3079 3081 3083 3085 3088 3090 3092 3094 3096 3097 3099 3101 3103 3104 3106 3108 3109 3110 3111 3112 3113 3114 3115 3116 3118 3118 3118 3119 3119 3120 3123
3054 3053 3053 3053 3052 3051 3051 3050 3049 3049 3049 3050 3051 3052 3052 3053 3054 3054 3056 3057 3058 3059 3060 3061 3062 3063 3065 3066 3067 3068 3069 3071 3073 3075 3077 3079 3081 3083 3085 3087 3089 3091 3093 3095 3097 3099 3100 3102 3103 3104 3105 3106 3107 3109 3110 3111 3113 3114 3114 3114 3114 3116 3119
3053 3053 3053 3052 3052 3051 3050 3049 3049 3048 3048 3048 3049 3049 3050 3050 3051 3051 3052 3054 3055 3056 3056 3057 3058 3059 3061 3062 3063 3064 3065 3066 3068 3070 3072 3073 3075 3077 3079 3081 3082 3085 3087 3089 3091 3093 3095 3096 3097 3098 3098 3099 3101 3103 3104 3105 3107 3109 3109 3109 3110 3112 3114
3053 3053 3052 3052 3052 3051 3050 3049 3049 3048 3048 3047 3047 3047 3048 3048 3048 3049 3049 3051 3052 3052 3052 3053 3054 3055 3057 3058 3060 3061 3062 3063 3064 3065 3067 3068 3070 3071 3073 3074 3076 3077 3080 3082 3084 3087 3088 3090 3091 3091 3092 3093 3094 3096 3097 3100 3102 3103 3103 3104 3105 3106 3109
3052 3052 3052 3052 3051 3051 3050 3050 3049 3048 3047 3047 3047 3046 3046 3046 3046 3046 3047 3048 3048 3049 3049 3050 3051 3052 3053 3054 3055 3056 3057 3057 3058 3059 3060 3062 3063 3064 3065 3067 3068 3070 3072 3074 3077 3080 3082 3083 3083 3084 3085 3086 3087 3088 3091 3094 3097 3097 3098 3098 3099 3101 3102
3051 3051 3051 3051 3051 3050 3050 3049 3049 3048 3047 3047 3046 3046 3045 3045 3045 3045 3045 3045 3046 3046 3046 3047 3048 3049 3049 3050 3051 3051 3052 3052 3053 3054 3055 3055 3056 3057 3058 3060 3061 3062 3063 3066 3069 3072 3074 3075 3076 3077 3078 3079 3080 3081 3083 3088 3091 3092 3093 3093 3094 3095 3096
3050 3050 3050 3050 3050 3049 3049 3048 3048 3047 3047 3046 3045 3045 3044 3044 3044 3043 3043 3044 3044 3044 3044 3044 3045 3045 3046 3046 3047 3047 3048 3048 3048 3049 3049 3050 3051 3051 3052 3054 3055 3056 3057 3058 3061 3063 3066 3067 3067 3069 3070 3071 3071 3073 3076 3081 3084 3086 3087 3087 3088 3089 3090
3048 3048 3048 3048 3048 3048 3048 3047 3047 3046 3045 3045 3044 3044 3043 3043 3043 3042 3042 3042 3042 3042 3042 3042 3043 3043 3043 3043 3043 3044 3044 3043 3043 3044 3044 3045 3045 3046 3047 3048 3049 3050 3050 3051 3052 3054 3056 3058 3059 3060 3062 3062 3063 3066 3069 3073 3076 3078 3079 3080 3081 3083 3084
3047 3047 3047 3046 3046 3046 3046 3045 3045 3045 3044 3044 3043 3042 3042 3041 3041 3041 3041 3041 3041 3041 3041 3041 3041 3041 3040 3040 3040 3040 3040 3039 3039 3039 3039 3040 3040 3041 3041 3042 3042 3043 3043 3044 3045 3046 3047 3049 3050 3051 3052 3054 3057 3059 3061 3064 3067 3069 3070 3071 3073 3075 3076
3045 3045 3045 3044 3044 3044 3044 3044 3044 3043 3043 3042 3042 3041 3040 3040 3040 3039 3039 3039 3039 3039 3039 3039 3039 3039 3038 3038 3037 3037 3037 3036 3035 3034 3034 3035 3035 3035 3035 3036 3036 3036 3036 3036 3037 3038 3039 3040 3042 3043 3045 3047 3049 3051 3053 3055 3058 3060 3061 3063 3064 3066 3068
3043 3043 3043 3043 3042 3042 3042 3042 3042 3041 3041 3041 3040 3040 3039 3039 3038 3038 3037 3037 3037 3037 3037 3037 3037 3036 3036 3035 3035 3034 3033 3032 3031 3030 3030 3031 3031 3030 3030 3030 3030 3030 3030 3030 3030 3030 3031 3032 3034 3036 3038 3039 3041 3043 3045 3046 3048 3050 3052 3054 3056 3058 3060
3042 3042 3041 3041 3041 3041 3040 3040 3039 3039 3039 3039 3038 3038 3037 3037 3037 3036 3036 3036 3035 3035 3034 3034 3034 3034 3033 3033 3032 3031 3030 3029 3028 3027 3026 3026 3026 3026 3025 3025 3025 3025 3025 3024 3024 3025 3025 3026 3027 3029 3030 3031 3033 3035 3037 3038 3040 3042 3044 3046 3048 3050 3053